Mumbai, India

6:23 AM IST on February 24, 2017 (GMT +0530)
Chhatrapati Shivaji International

Weather History for VABB - March, 2014

Change the Weather History Date:

Saturday, March 22, 2014

  Actual Average Record
Temperature  
Mean Temperature 80 °F -  
Max Temperature 87 °F 89 °F 96 °F (2006)
Min Temperature 72 °F 74 °F 68 °F (1997)
Cooling Degree Days 14    
Growing Degree Days 30 (Base 50)    
Moisture  
Dew Point 67 °F    
Average Humidity 64    
Maximum Humidity 79    
Minimum Humidity 41    
Precipitation  
Precipitation 0.00 in - - ()
Sea Level Pressure  
Sea Level Pressure 29.80 in    
Wind  
Wind Speed 6 mph ()    
Max Wind Speed 14 mph    
Max Gust Speed 23 mph    
Visibility 2.4 miles    
Events      
Averages and records for this station are not official NWS values.
T = Trace of Precipitation, MM = Missing Value Source: Averaged Metar Reports

Daily Weather History Graph

Daily Weather History Graph

Search for Another Location

Airport or City:

Trip Planner

Search our weather history database for the weather conditions in past years. The results will help you decide how hot, cold, wet, or windy it might be!

Date:

Astronomy

Mar. 22, 2014 Rise Set
Actual Time 6:41 AM IST 6:50 PM IST
Civil Twilight 6:19 AM IST 7:11 PM IST
Nautical Twilight 5:54 AM IST 7:37 PM IST
Astronomical Twilight 5:28 AM IST 8:02 PM IST
Moon 12:03 AM IST (3/23) 10:38 AM IST (3/22)
Length of Visible Light 12h 52m
Length of Day
12h 08m
Waning Gibbous, 70% of the Moon is Illuminated
Mar 22
Waning Gibbous
Mar 24
Last Quarter
Mar 31
New
Apr 7
First Quarter
Apr 15
Full

Hourly Weather History & Observations

Time (IST) Temp. Heat Index Dew Point Humidity Pressure Visibility Wind Dir Wind Speed Gust Speed Precip Events Conditions
12:10 AM 80.6 °F 82.7 °F 66.2 °F 61% 29.80 in 2.5 mi WSW 6.9 mph - N/A   Smoke
12:40 AM 80.6 °F 82.7 °F 66.2 °F 61% 29.80 in 2.5 mi WNW 5.8 mph - N/A   Haze
1:10 AM 80.6 °F 82.7 °F 66.2 °F 61% 29.80 in 2.5 mi NW 5.8 mph - N/A   Haze
1:40 AM 78.8 °F - 68.0 °F 69% 29.77 in 2.5 mi WNW 5.8 mph - N/A   Haze
2:10 AM 78.8 °F - 68.0 °F 69% 29.77 in 2.5 mi WNW 3.5 mph - N/A   Haze
2:30 AM 76 °F - 68 °F 69% 29.79 in 1 mi Calm Calm - -   Haze
2:40 AM 78.8 °F - 66.2 °F 65% 29.77 in 2.5 mi West 4.6 mph - N/A   Haze
3:10 AM 78.8 °F - 68.0 °F 69% 29.77 in 2.5 mi West 4.6 mph - N/A   Haze
3:40 AM 78.8 °F - 68.0 °F 69% 29.77 in 2.5 mi West 5.8 mph - N/A   Haze
4:10 AM 78.8 °F - 68.0 °F 69% 29.77 in 2.5 mi NW 3.5 mph - N/A   Haze
4:40 AM 77.0 °F - 68.0 °F 74% 29.77 in 2.5 mi WNW 4.6 mph - N/A   Haze
5:10 AM 77.0 °F - 69.8 °F 78% 29.77 in 2.5 mi NW 4.6 mph - N/A   Haze
5:30 AM 75 °F - 70 °F 79% 29.79 in 1 mi Calm Calm - -   Haze
5:40 AM 77.0 °F - 69.8 °F 78% 29.77 in 2.5 mi NNW 3.5 mph - N/A   Haze
6:10 AM 77.0 °F - 69.8 °F 78% 29.80 in 2.5 mi Calm Calm - N/A   Haze
6:40 AM 77.0 °F - 69.8 °F 78% 29.80 in 2.5 mi NNE 3.5 mph - N/A   Haze
7:40 AM 77.0 °F - 69.8 °F 78% 29.83 in 3.1 mi North 4.6 mph - N/A   Haze
8:10 AM 78.8 °F - 69.8 °F 74% 29.83 in 2.8 mi NNE 5.8 mph - N/A   Haze
8:30 AM 79 °F - 69 °F 64% 29.86 in 1 mi NW 4.6 mph - -   Smoke
8:40 AM 78.8 °F - 68.0 °F 69% 29.86 in 2.8 mi Calm Calm - N/A   Haze
9:10 AM 80.6 °F 82.7 °F 66.2 °F 61% 29.86 in 2.8 mi NW 5.8 mph - N/A   Haze
10:10 AM 82.4 °F 84.6 °F 66.2 °F 58% 29.89 in 3.1 mi NW 8.1 mph - N/A   Haze
10:40 AM 82.4 °F 84.6 °F 66.2 °F 58% 29.89 in 3.1 mi NW 8.1 mph - N/A   Smoke
11:10 AM 82.4 °F 84.6 °F 66.2 °F 58% 29.86 in 3.1 mi WNW 9.2 mph 20.7 mph N/A   Smoke
11:30 AM 84 °F - 68 °F 49% 29.87 in 1 mi West 6.9 mph - -   Smoke
11:40 AM 82.4 °F 84.6 °F 66.2 °F 58% 29.86 in 3.1 mi WNW 9.2 mph 20.7 mph N/A   Smoke
12:10 PM 84.2 °F 85.6 °F 64.4 °F 51% 29.86 in 3.1 mi NW 11.5 mph 23.0 mph N/A   Smoke
12:40 PM 84.2 °F 86.6 °F 66.2 °F 55% 29.83 in 3.1 mi WNW 11.5 mph - N/A   Smoke
1:10 PM 84.2 °F 85.6 °F 64.4 °F 51% 29.80 in 3.7 mi WNW 12.7 mph - N/A   Unknown
1:40 PM 84.2 °F 85.6 °F 64.4 °F 51% 29.80 in - WNW 12.7 mph - N/A   Clear
2:10 PM 84.2 °F 85.6 °F 64.4 °F 51% 29.77 in - WNW 13.8 mph - N/A   Clear
2:30 PM 87 °F - 66 °F 41% 29.77 in 1 mi North 11.5 mph - -   Smoke
2:40 PM 84.2 °F 85.6 °F 64.4 °F 51% 29.77 in - NW 9.2 mph - N/A   Clear
3:10 PM 86.0 °F 88.2 °F 66.2 °F 51% 29.77 in - WNW 13.8 mph - N/A   Clear
3:40 PM 84.2 °F 85.6 °F 64.4 °F 51% 29.74 in - WNW 10.4 mph - N/A   Clear
4:10 PM 84.2 °F 86.6 °F 66.2 °F 55% 29.74 in - WNW 11.5 mph - N/A   Clear
4:40 PM 84.2 °F 86.6 °F 66.2 °F 55% 29.74 in - WNW 9.2 mph - N/A   Clear
5:10 PM 82.4 °F 84.6 °F 66.2 °F 58% 29.74 in - WNW 10.4 mph - N/A   Clear
5:30 PM 84 °F - 68 °F 49% 29.75 in 1 mi NW 4.6 mph - -   Smoke
5:40 PM 82.4 °F 85.4 °F 68.0 °F 62% 29.74 in - WNW 12.7 mph - N/A   Unknown
6:10 PM 80.6 °F 82.7 °F 66.2 °F 61% 29.74 in 3.7 mi WNW 9.2 mph - N/A   Unknown
7:10 PM 80.6 °F 82.7 °F 66.2 °F 61% 29.77 in 3.1 mi WNW 11.5 mph - N/A   Haze
7:40 PM 78.8 °F - 68.0 °F 69% 29.77 in 2.5 mi WNW 6.9 mph - N/A   Haze
8:10 PM 78.8 °F - 68.0 °F 69% 29.77 in 2.5 mi West 9.2 mph - N/A   Haze
8:30 PM 79 °F - 68 °F 61% 29.79 in 1 mi NW 4.6 mph - -   Smoke
8:40 PM 78.8 °F - 68.0 °F 69% 29.77 in 2.5 mi West 9.2 mph - N/A   Haze
9:10 PM 78.8 °F - 68.0 °F 69% 29.80 in 2.5 mi WNW 4.6 mph - N/A   Haze
9:40 PM 78.8 °F - 69.8 °F 74% 29.80 in 2.5 mi NW 6.9 mph - N/A   Haze
10:10 PM 78.8 °F - 69.8 °F 74% 29.80 in 2.5 mi NW 5.8 mph - N/A   Haze
10:40 PM 78.8 °F - 69.8 °F 74% 29.80 in 2.5 mi WNW 4.6 mph - N/A   Haze
11:10 PM 77.0 °F - 69.8 °F 78% 29.80 in 2.5 mi NW 3.5 mph - N/A   Haze
11:30 PM 77 °F - 71 °F 75% 29.81 in 1 mi NW 6.9 mph - -   Haze
11:40 PM 77.0 °F - 69.8 °F 78% 29.80 in 2.5 mi NW 3.5 mph - N/A   Haze